KQ4VHC Weather Reports


time (UTC)temp
C
wind
direction
speed
KPH
gust
KPH
rain 1hr
cm
rain 24hr
cm
rain mn
cm
humidity
%
barometer
mb
20260504110507 8 274 1.6 3.2 0.00 0.00 0.00 69 1015.2
20260504100508 7 233 0.0 0.0 0.00 0.00 0.00 73 1014.9
20260504082004 7 265 0.0 0.0 0.00 0.00 0.00 75 1014.9
20260504081511 8 219 0.0 0.0 0.00 0.00 0.00 77 1015.0
20260504081011 8 217 0.0 1.6 0.00 0.00 0.00 77 1014.9
20260504080507 8 217 0.0 1.6 0.00 0.00 0.00 75 1014.9
20260504050508 8 155 0.0 3.2 0.00 0.00 0.00 70 1015.3
20260504050025 8 155 0.0 3.2 0.00 0.00 0.00 72 1015.3
20260504045507 8 274 0.0 0.0 0.00 0.00 0.00 72 1015.3
20260504045012 8 274 0.0 0.0 0.00 0.00 0.00 71 1015.1
20260504044531 8 274 0.0 0.0 0.00 0.00 0.00 70 1015.1
20260504044006 8 274 0.0 0.0 0.00 0.00 0.00 69 1015.0
20260504043506 8 274 0.0 0.0 0.00 0.00 0.00 70 1015.1
20260504043030 8 274 0.0 0.0 0.00 0.00 0.00 69 1015.2
20260504042508 8 274 0.0 0.0 0.00 0.00 0.00 70 1015.1
20260504042011 8 274 0.0 0.0 0.00 0.00 0.00 70 1015.1
20260504041520 8 274 0.0 0.0 0.00 0.00 0.00 70 1015.0
20260504041002 8 274 0.0 1.6 0.00 0.00 0.00 68 1015.0
20260504040502 8 274 0.0 1.6 0.00 0.00 0.00 62 1015.0
20260504040008 8 269 0.0 0.0 0.00 0.00 0.00 62 1015.0
20260504035506 8 269 0.0 0.0 0.00 0.00 0.00 69 1014.9
20260504035004 8 269 0.0 0.0 0.00 0.00 0.00 71 1014.9
20260504034514 8 269 0.0 0.0 0.00 0.00 0.00 69 1015.0
20260504034004 8 269 0.0 0.0 0.00 0.00 0.00 69 1015.0
20260504033513 8 269 0.0 0.0 0.00 0.00 0.00 68 1015.0
20260504033012 8 269 0.0 0.0 0.00 0.00 0.00 68 1014.9
20260504032506 8 269 0.0 0.0 0.00 0.00 0.00 70 1014.9
20260504032006 8 269 0.0 0.0 0.00 0.00 0.00 65 1014.9
20260504031522 8 269 0.0 0.0 0.00 0.00 0.00 67 1014.9
20260504031008 8 269 0.0 1.6 0.00 0.00 0.00 65 1015.0
20260504030508 8 269 0.0 1.6 0.00 0.00 0.00 67 1015.0
20260504030023 8 269 0.0 0.0 0.00 0.00 0.00 68 1015.0
20260504025503 8 269 0.0 0.0 0.00 0.00 0.00 65 1015.0
20260504025003 8 269 0.0 0.0 0.00 0.00 0.00 66 1014.9
20260504024510 8 269 0.0 1.6 0.00 0.00 0.00 63 1015.0
20260504024002 8 269 0.0 3.2 0.00 0.00 0.00 64 1015.0
20260504023507 8 269 0.0 3.2 0.00 0.00 0.00 63 1015.1
20260504023009 8 265 0.0 3.2 0.00 0.00 0.00 63 1015.1
20260504022508 8 265 1.6 3.2 0.00 0.00 0.00 63 1015.0
20260504022004 8 263 1.6 3.2 0.00 0.00 0.00 62 1014.9
20260504021522 8 259 1.6 1.6 0.00 0.00 0.00 61 1014.8
20260504021006 7 258 0.0 1.6 0.00 0.00 0.00 62 1014.6
20260504020506 7 257 0.0 0.0 0.00 0.00 0.00 63 1014.7
20260504020020 7 266 0.0 1.6 0.00 0.00 0.00 63 1014.7
20260504015508 7 266 0.0 1.6 0.00 0.00 0.00 63 1014.8
20260504015010 7 266 0.0 1.6 0.00 0.00 0.00 62 1014.5
20260504014522 7 266 0.0 1.6 0.00 0.00 0.00 61 1014.6
20260504014003 7 266 0.0 1.6 0.00 0.00 0.00 61 1014.6
20260504013506 7 256 0.0 0.0 0.00 0.00 0.00 61 1014.6
20260504013010 8 255 0.0 0.0 0.00 0.00 0.00 60 1014.4
20260504012504 8 255 0.0 0.0 0.00 0.00 0.00 59 1014.4
20260504012004 8 255 0.0 0.0 0.00 0.00 0.00 58 1014.3
20260504011509 8 255 0.0 0.0 0.00 0.00 0.00 58 1014.3
20260504011008 8 255 0.0 0.0 0.00 0.00 0.00 57 1014.3
20260504010504 8 256 0.0 0.0 0.00 0.00 0.00 56 1014.3
20260504010017 9 257 0.0 0.0 0.00 0.00 0.00 55 1014.2
20260504005507 9 258 0.0 0.0 0.00 0.00 0.00 53 1014.2
20260504005010 10 258 0.0 0.0 0.00 0.00 0.00 52 1014.3
20260504004520 10 257 0.0 0.0 0.00 0.00 0.00 52 1014.2
20260504004008 10 257 0.0 0.0 0.00 0.00 0.00 50 1014.2
20260504003508 11 257 0.0 0.0 0.00 0.00 0.00 50 1014.2
20260504003023 11 257 0.0 0.0 0.00 0.00 0.00 47 1014.1
20260504002508 11 257 0.0 0.0 0.00 0.00 0.00 47 1014.1
20260504002004 12 257 0.0 0.0 0.00 0.00 0.00 46 1014.2
20260504001509 12 257 0.0 0.0 0.00 0.00 0.00 44 1014.1
20260504001005 12 257 0.0 0.0 0.00 0.00 0.00 45 1014.1
20260504000507 13 257 0.0 0.0 0.00 0.00 0.00 45 1014.1
20260504000028 13 257 0.0 0.0 0.00 0.00 0.00 41 1014.0
20260503235510 13 257 0.0 0.0 0.00 0.00 0.00 40 1014.0
20260503235007 14 259 0.0 0.0 0.00 0.00 0.00 36 1014.0
20260503234518 15 259 0.0 1.6 0.00 0.00 0.00 35 1013.9
20260503234011 15 259 0.0 1.6 0.00 0.00 0.00 33 1013.9
20260503233507 16 252 0.0 1.6 0.00 0.00 0.00 29 1013.8
20260503233022 16 252 0.0 3.2 0.00 0.00 0.00 27 1013.8
20260503232507 16 252 0.0 3.2 0.00 0.00 0.00 27 1013.7
20260503232013 16 264 0.0 3.2 0.00 0.00 0.00 26 1013.7
20260503231527 16 264 0.0 4.8 0.00 0.00 0.00 26 1013.7
20260503231009 16 276 1.6 6.4 0.00 0.00 0.00 25 1013.6
20260503230505 17 259 0.0 11.3 0.00 0.00 0.00 25 1013.5
20260503230025 17 278 3.2 11.3 0.00 0.00 0.00 24 1013.5
20260503225505 17 241 6.4 11.3 0.00 0.00 0.00 25 1013.5
20260503225006 17 255 0.0 9.7 0.00 0.00 0.00 25 1013.5
20260503224514 17 238 4.8 8.0 0.00 0.00 0.00 24 1013.5
20260503224009 18 261 3.2 8.0 0.00 0.00 0.00 24 1013.6
20260503223508 17 275 4.8 12.9 0.00 0.00 0.00 24 1013.7
20260503223026 17 261 4.8 12.9 0.00 0.00 0.00 24 1013.7
20260503222508 17 229 8.0 20.9 0.00 0.00 0.00 23 1013.6
20260503222010 17 265 6.4 20.9 0.00 0.00 0.00 25 1013.6
20260503221532 17 274 6.4 14.5 0.00 0.00 0.00 25 1013.7
20260503221012 17 246 4.8 12.9 0.00 0.00 0.00 23 1013.7
20260503220510 18 255 6.4 12.9 0.00 0.00 0.00 24 1013.7
20260503220028 18 281 1.6 8.0 0.00 0.00 0.00 24 1013.7
20260503215510 17 271 3.2 8.0 0.00 0.00 0.00 26 1013.8
20260503215005 17 263 4.8 14.5 0.00 0.00 0.00 25 1013.8
20260503214514 17 78 0.0 14.5 0.00 0.00 0.00 24 1013.9
20260503214010 18 221 4.8 14.5 0.00 0.00 0.00 24 1013.9
20260503213506 18 242 1.6 14.5 0.00 0.00 0.00 25 1013.8
20260503213027 18 308 3.2 16.1 0.00 0.00 0.00 22 1013.7
20260503212507 17 233 8.0 16.1 0.00 0.00 0.00 24 1013.7
20260503212010 17 243 9.7 16.1 0.00 0.00 0.00 24 1013.7
20260503211523 17 266 9.7 14.5 0.00 0.00 0.00 23 1013.7
20260503211012 18 247 3.2 8.0 0.00 0.00 0.00 27 1013.8
20260503210509 17 202 3.2 8.0 0.00 0.00 0.00 28 1013.8
20260503210028 17 59 3.2 8.0 0.00 0.00 0.00 24 1013.9
20260503205509 17 320 1.6 8.0 0.00 0.00 0.00 26 1013.9
20260503205015 17 153 3.2 11.3 0.00 0.00 0.00 26 1013.9
20260503204528 17 262 4.8 11.3 0.00 0.00 0.00 25 1014.0
20260503204011 17 258 1.6 8.0 0.00 0.00 0.00 27 1014.2
20260503203506 17 237 1.6 8.0 0.00 0.00 0.00 26 1014.2
20260503203016 18 198 4.8 8.0 0.00 0.00 0.00 26 1014.3
20260503202509 18 72 3.2 9.7 0.00 0.00 0.00 28 1014.3
20260503202012 18 119 4.8 9.7 0.00 0.00 0.00 31 1014.2
20260503201530 17 212 3.2 9.7 0.00 0.00 0.00 25 1014.4
20260503201008 17 109 1.6 9.7 0.00 0.00 0.00 26 1014.4
20260503200507 17 233 3.2 16.1 0.00 0.00 0.00 27 1014.6
20260503200030 17 200 4.8 17.7 0.00 0.00 0.00 30 1014.6
20260503195508 16 214 8.0 17.7 0.00 0.00 0.00 27 1014.6
20260503195012 17 231 8.0 16.1 0.00 0.00 0.00 26 1014.8
20260503194529 17 45 3.2 16.1 0.00 0.00 0.00 27 1014.8
20260503194010 16 148 9.7 16.1 0.00 0.00 0.00 26 1014.9
20260503193513 17 262 6.4 11.3 0.00 0.00 0.00 26 1014.9
20260503193026 17 185 1.6 12.9 0.00 0.00 0.00 28 1015.0
20260503192509 17 255 4.8 17.7 0.00 0.00 0.00 31 1015.1
20260503192011 16 145 6.4 17.7 0.00 0.00 0.00 27 1015.2
20260503191520 16 257 6.4 11.3 0.00 0.00 0.00 28 1015.4
20260503191007 16 113 3.2 14.5 0.00 0.00 0.00 28 1015.4
20260503190507 16 227 3.2 14.5 0.00 0.00 0.00 29 1015.5
20260503190007 16 240 4.8 19.3 0.00 0.00 0.00 31 1015.6
20260503185510 16 282 8.0 19.3 0.00 0.00 0.00 28 1015.8
20260503185003 16 205 3.2 12.9 0.00 0.00 0.00 32 1015.7
20260503184507 16 207 3.2 12.9 0.00 0.00 0.00 28 1015.8
20260503184003 16 266 3.2 19.3 0.00 0.00 0.00 28 1015.9
20260503183505 15 160 8.0 19.3 0.00 0.00 0.00 31 1016.1
20260503183017 16 269 8.0 19.3 0.00 0.00 0.00 28 1016.1
20260503182502 16 263 3.2 19.3 0.00 0.00 0.00 32 1016.2
20260503182005 16 226 9.7 14.5 0.00 0.00 0.00 34 1016.2
20260503181552 15 34 3.2 14.5 0.00 0.00 0.00 33 1016.2
20260503181004 16 231 9.7 16.1 0.00 0.00 0.00 30 1016.1
20260503180507 15 168 4.8 16.1 0.00 0.00 0.00 32 1016.2
20260503180020 15 271 9.7 16.1 0.00 0.00 0.00 33 1016.2
20260503175510 15 241 6.4 27.4 0.00 0.00 0.00 32 1016.5
20260503175010 15 309 8.0 27.4 0.00 0.00 0.00 32 1016.5
20260503174504 15 263 9.7 19.3 0.00 0.00 0.00 30 1016.5
20260503174002 15 266 9.7 19.3 0.00 0.00 0.00 30 1016.6
20260503173502 15 238 8.0 19.3 0.00 0.00 0.00 33 1016.6
20260503173024 15 288 11.3 19.3 0.00 0.00 0.00 32 1016.7
20260503172502 15 51 6.4 14.5 0.00 0.00 0.00 33 1016.6
20260503172003 14 268 6.4 16.1 0.00 0.00 0.00 32 1016.7
20260503171524 14 236 6.4 16.1 0.00 0.00 0.00 33 1016.9
20260503171006 15 282 4.8 14.5 0.00 0.00 0.00 35 1016.9
20260503170503 15 131 3.2 17.7 0.00 0.00 0.00 33 1017.0
20260503151003 11 346 6.4 16.1 0.00 0.00 0.00 35 1018.4
20260503150505 12 296 9.7 17.7 0.00 0.00 0.00 38 1018.5
20260503131007 9 248 4.8 16.1 0.00 0.00 0.00 45 1018.1
20260503130509 10 239 3.2 14.5 0.00 0.00 0.00 48 1018.1